EZY74HQ EGKK-LGKL

Flight info

Callsign EZY74HQ
Flight time 3h 2m
Altitude 35000
Route ODVIK Y311 DVR UL9 KONAN DCT KOK UL607 FERDI DCT REMBA DCT SPI DCT ULNOK DCT VIBOM DCT NOMBO DCT RIDAR DCT RADIZ DCT LUMUS DCT GORPA DCT NAVSU/N0446F370 DCT TAZ DCT RODON DCT LIMJA DCT PITAS/N0457F330 UN732 ORTOS UL612 TRL Y115 IPTAG
Aircraft A319/M-SDE3FGHIRWY/LB1

Departure

Time 2026-04-25 08:55
Airport London Gatwick Airport (EGKK)

Arrival

Time 2026-04-25 11:57
Airport Kalamata Airport (LGKL)
Time Latitude Longitude Altitude Speed Heading
2026-04-25 08:40 51.15334 -0.18906 203 ft 0 kts 257°
2026-04-25 08:42 51.15337 -0.18886 213 ft 4 kts 256°
2026-04-25 08:42 51.15344 -0.18844 213 ft 4 kts 252°
2026-04-25 08:42 51.15353 -0.18804 205 ft 4 kts 241°
2026-04-25 08:42 51.15368 -0.18772 216 ft 4 kts 206°
2026-04-25 08:43 51.15382 -0.18767 213 ft 1 kts 167°
2026-04-25 08:43 51.15385 -0.18768 214 ft 0 kts 167°
2026-04-25 08:46 51.15384 -0.18768 213 ft 1 kts 167°
2026-04-25 08:47 51.15342 -0.18753 212 ft 10 kts 167°
2026-04-25 08:47 51.15274 -0.18731 207 ft 10 kts 168°
2026-04-25 08:47 51.15229 -0.18716 204 ft 10 kts 167°
2026-04-25 08:47 51.15138 -0.18715 207 ft 10 kts 218°
2026-04-25 08:48 51.15117 -0.18823 203 ft 11 kts 259°
2026-04-25 08:48 51.15098 -0.18958 207 ft 13 kts 257°
2026-04-25 08:48 51.15080 -0.19096 206 ft 13 kts 258°
2026-04-25 08:48 51.15059 -0.19248 204 ft 14 kts 258°
2026-04-25 08:49 51.15045 -0.19349 204 ft 14 kts 258°
2026-04-25 08:49 51.15024 -0.19503 210 ft 14 kts 257°
2026-04-25 08:49 51.15003 -0.19658 208 ft 15 kts 257°
2026-04-25 08:49 51.14973 -0.19870 204 ft 15 kts 257°
2026-04-25 08:50 51.14958 -0.19980 203 ft 16 kts 258°
2026-04-25 08:50 51.14935 -0.20151 205 ft 16 kts 257°
2026-04-25 08:50 51.14910 -0.20325 209 ft 16 kts 257°
2026-04-25 08:50 51.14886 -0.20503 203 ft 16 kts 257°
2026-04-25 08:51 51.14861 -0.20681 203 ft 17 kts 258°
2026-04-25 08:51 51.14837 -0.20861 207 ft 17 kts 258°
2026-04-25 08:51 51.14812 -0.21038 215 ft 16 kts 258°
2026-04-25 08:51 51.14781 -0.21214 208 ft 17 kts 249°
2026-04-25 08:52 51.14748 -0.21383 210 ft 15 kts 227°
2026-04-25 08:52 51.14663 -0.21364 215 ft 11 kts 136°
2026-04-25 08:52 51.14612 -0.21326 203 ft 3 kts 166°
2026-04-25 08:52 51.14608 -0.21324 203 ft 0 kts 165°
2026-04-25 08:53 51.14601 -0.21321 203 ft 6 kts 165°
2026-04-25 08:53 51.14519 -0.21177 202 ft 15 kts 86°
2026-04-25 08:54 51.14532 -0.21058 203 ft 0 kts 78°
2026-04-25 08:54 51.14559 -0.20862 208 ft 52 kts 77°
2026-04-25 08:54 51.14684 -0.19955 213 ft 114 kts 77°
2026-04-25 08:54 51.14895 -0.18440 210 ft 163 kts 77°
2026-04-25 08:55 51.15151 -0.16647 673 ft 170 kts 76°
2026-04-25 08:55 51.15430 -0.14783 1259 ft 174 kts 77°
2026-04-25 08:55 51.15693 -0.12848 1691 ft 188 kts 78°
2026-04-25 08:55 51.15981 -0.10671 1946 ft 213 kts 78°
2026-04-25 08:56 51.16307 -0.08226 2312 ft 237 kts 78°
2026-04-25 08:56 51.16668 -0.05551 2866 ft 253 kts 78°
2026-04-25 08:56 51.16890 -0.02743 3646 ft 259 kts 91°
2026-04-25 08:56 51.16837 0.00146 4500 ft 262 kts 92°
2026-04-25 08:57 51.16783 0.03079 5311 ft 268 kts 92°
2026-04-25 08:57 51.16726 0.06073 6091 ft 273 kts 92°
2026-04-25 08:57 51.16667 0.09126 6858 ft 278 kts 92°
2026-04-25 08:57 51.16606 0.12232 7596 ft 283 kts 92°
2026-04-25 08:58 51.16544 0.15389 8353 ft 287 kts 91°
2026-04-25 08:58 51.16514 0.18589 9128 ft 291 kts 90°
2026-04-25 08:58 51.16521 0.21825 9889 ft 295 kts 89°
2026-04-25 08:58 51.16539 0.25114 10596 ft 299 kts 89°
2026-04-25 08:59 51.16558 0.28440 11295 ft 302 kts 89°
2026-04-25 08:59 51.16573 0.31800 12005 ft 304 kts 89°
2026-04-25 08:59 51.16584 0.35181 12715 ft 307 kts 90°
2026-04-25 08:59 51.16589 0.38600 13420 ft 310 kts 90°
2026-04-25 09:00 51.16591 0.42052 14108 ft 313 kts 90°
2026-04-25 09:00 51.16591 0.45528 14710 ft 316 kts 90°
2026-04-25 09:00 51.16589 0.49050 15289 ft 320 kts 90°
2026-04-25 09:00 51.16585 0.52709 15444 ft 340 kts 90°
2026-04-25 09:01 51.16581 0.56588 15577 ft 359 kts 90°
2026-04-25 09:01 51.16579 0.60613 15699 ft 377 kts 90°
2026-04-25 09:01 51.16576 0.64867 15961 ft 389 kts 90°
2026-04-25 09:01 51.16573 0.69269 16443 ft 394 kts 90°
2026-04-25 09:02 51.16568 0.73653 16966 ft 399 kts 90°
2026-04-25 09:02 51.16562 0.78052 17484 ft 403 kts 90°
2026-04-25 09:02 51.16555 0.82514 18005 ft 407 kts 90°
2026-04-25 09:02 51.16543 0.87093 18528 ft 411 kts 90°
2026-04-25 09:03 51.16523 0.91593 18976 ft 414 kts 90°
2026-04-25 09:03 51.16500 0.96202 19448 ft 418 kts 90°
2026-04-25 09:03 51.16476 1.00877 19888 ft 422 kts 90°
2026-04-25 09:03 51.16454 1.05565 20339 ft 425 kts 90°
2026-04-25 09:04 51.16433 1.10282 20780 ft 428 kts 90°
2026-04-25 09:04 51.16408 1.15046 21215 ft 431 kts 90°
2026-04-25 09:04 51.16382 1.19843 21648 ft 434 kts 90°
2026-04-25 09:04 51.16351 1.24673 22064 ft 437 kts 90°
2026-04-25 09:05 51.16314 1.29537 22478 ft 440 kts 90°
2026-04-25 09:05 51.16275 1.34433 22880 ft 443 kts 90°
2026-04-25 09:05 51.16190 1.39360 23272 ft 446 kts 92°
2026-04-25 09:05 51.16008 1.44314 23662 ft 449 kts 93°
2026-04-25 09:06 51.15753 1.49298 23992 ft 453 kts 94°
2026-04-25 09:06 51.15463 1.54293 24314 ft 455 kts 95°
2026-04-25 09:06 51.15168 1.59274 24636 ft 457 kts 95°
2026-04-25 09:06 51.14882 1.64331 24964 ft 459 kts 94°
2026-04-25 09:07 51.14614 1.69415 25287 ft 461 kts 94°
2026-04-25 09:07 51.14359 1.74523 25609 ft 464 kts 94°
2026-04-25 09:07 51.14108 1.79641 25925 ft 466 kts 94°
2026-04-25 09:07 51.13854 1.84787 26239 ft 468 kts 94°
2026-04-25 09:08 51.13594 1.89979 26567 ft 470 kts 94°
2026-04-25 09:08 51.13328 1.95179 26846 ft 472 kts 94°
2026-04-25 09:08 51.13055 2.00433 27129 ft 475 kts 94°
2026-04-25 09:08 51.12780 2.05672 27416 ft 477 kts 94°
2026-04-25 09:09 51.12500 2.10947 27697 ft 479 kts 94°
2026-04-25 09:09 51.12212 2.16256 27978 ft 481 kts 94°
2026-04-25 09:09 51.11927 2.21500 28252 ft 483 kts 94°
2026-04-25 09:09 51.11638 2.26824 28517 ft 485 kts 94°
2026-04-25 09:10 51.11348 2.32181 28789 ft 487 kts 94°
2026-04-25 09:10 51.11050 2.37559 29056 ft 489 kts 94°
2026-04-25 09:10 51.10748 2.42959 29299 ft 491 kts 94°
2026-04-25 09:10 51.10441 2.48380 29552 ft 493 kts 94°
2026-04-25 09:11 51.09819 2.59209 30292 ft 491 kts 94°
2026-04-25 09:11 51.09433 2.64604 30610 ft 491 kts 99°
2026-04-25 09:11 51.08637 2.69880 30932 ft 490 kts 106°
2026-04-25 09:12 51.07688 2.75086 31243 ft 489 kts 106°
2026-04-25 09:12 51.06740 2.80278 31580 ft 488 kts 106°
2026-04-25 09:12 51.05794 2.85447 31926 ft 487 kts 105°
2026-04-25 09:12 51.04850 2.90616 32237 ft 487 kts 105°
2026-04-25 09:13 51.03909 2.95777 32568 ft 486 kts 105°
2026-04-25 09:13 51.02972 3.00929 32908 ft 484 kts 105°
2026-04-25 09:13 51.02035 3.06063 33237 ft 483 kts 105°
2026-04-25 09:13 51.01096 3.11182 33575 ft 482 kts 105°
2026-04-25 09:14 51.00158 3.16275 33916 ft 481 kts 106°
2026-04-25 09:14 50.99215 3.21361 34248 ft 479 kts 106°
2026-04-25 09:14 50.98268 3.26439 34525 ft 479 kts 106°
2026-04-25 09:14 50.97323 3.31491 34804 ft 478 kts 106°
2026-04-25 09:15 50.96379 3.36540 35089 ft 477 kts 105°
2026-04-25 09:15 50.95437 3.41587 35206 ft 477 kts 105°
2026-04-25 09:15 50.93550 3.51657 35232 ft 476 kts 106°
2026-04-25 09:16 50.91652 3.61662 35225 ft 476 kts 106°
2026-04-25 09:16 50.89736 3.71711 35232 ft 476 kts 106°
2026-04-25 09:17 50.86854 3.86797 35230 ft 477 kts 106°
2026-04-25 09:18 50.84928 3.96838 35233 ft 477 kts 106°
2026-04-25 09:18 50.82989 4.06874 35239 ft 477 kts 106°
2026-04-25 09:19 50.81036 4.16885 35228 ft 477 kts 106°
2026-04-25 09:19 50.79078 4.26900 35225 ft 476 kts 106°
2026-04-25 09:20 50.77114 4.36896 35239 ft 476 kts 106°
2026-04-25 09:20 50.75138 4.46896 35236 ft 476 kts 106°
2026-04-25 09:21 50.73160 4.56872 35237 ft 476 kts 106°
2026-04-25 09:21 50.71178 4.66835 35237 ft 476 kts 106°
2026-04-25 09:22 50.69192 4.76727 35217 ft 476 kts 107°
2026-04-25 09:22 50.67186 4.86639 35221 ft 476 kts 107°
2026-04-25 09:23 50.65166 4.96589 35222 ft 476 kts 107°
2026-04-25 09:23 50.63127 5.06506 35222 ft 476 kts 107°
2026-04-25 09:24 50.61072 5.16452 35226 ft 476 kts 107°
2026-04-25 09:24 50.59018 5.26364 35214 ft 477 kts 107°
2026-04-25 09:25 50.56950 5.36294 35213 ft 477 kts 107°
2026-04-25 09:25 50.54870 5.46215 35217 ft 478 kts 107°
2026-04-25 09:26 50.52789 5.56135 35212 ft 477 kts 107°
2026-04-25 09:26 50.50692 5.66029 35193 ft 478 kts 108°
2026-04-25 09:27 50.48507 5.75814 35198 ft 478 kts 108°
2026-04-25 09:27 50.46264 5.85638 35197 ft 478 kts 108°
2026-04-25 09:28 50.44029 5.95456 35178 ft 478 kts 108°
2026-04-25 09:28 50.41797 6.05272 35180 ft 478 kts 108°
2026-04-25 09:29 50.39563 6.15077 35157 ft 478 kts 108°
2026-04-25 09:29 50.37321 6.24895 35154 ft 478 kts 108°
2026-04-25 09:30 50.35063 6.34715 35145 ft 478 kts 108°
2026-04-25 09:30 50.32810 6.44455 35142 ft 479 kts 108°
2026-04-25 09:31 50.30541 6.54239 35138 ft 479 kts 108°
2026-04-25 09:31 50.28241 6.64049 35147 ft 480 kts 108°
2026-04-25 09:32 50.25947 6.73825 35151 ft 480 kts 108°
2026-04-25 09:32 50.23648 6.83617 35162 ft 480 kts 108°
2026-04-25 09:33 50.21335 6.93406 35154 ft 480 kts 108°
2026-04-25 09:33 50.19007 7.03184 35152 ft 481 kts 109°
2026-04-25 09:34 50.16674 7.12964 35156 ft 481 kts 109°
2026-04-25 09:34 50.14327 7.22745 35160 ft 482 kts 109°
2026-04-25 09:35 50.11968 7.32520 35160 ft 482 kts 109°
2026-04-25 09:35 50.09601 7.42289 35162 ft 483 kts 109°
2026-04-25 09:36 50.07221 7.52085 35157 ft 484 kts 109°
2026-04-25 09:36 50.04833 7.61894 35155 ft 485 kts 109°
2026-04-25 09:37 50.02836 7.70045 35152 ft 485 kts 109°
2026-04-25 09:37 50.00029 7.81440 35161 ft 486 kts 110°
2026-04-25 09:38 49.97605 7.91251 35155 ft 487 kts 110°
2026-04-25 09:38 49.95562 7.99466 35151 ft 487 kts 110°
2026-04-25 09:39 49.93103 8.09293 35153 ft 488 kts 110°
2026-04-25 09:39 49.90649 8.19105 35164 ft 488 kts 110°
2026-04-25 09:40 49.86949 8.33800 35169 ft 488 kts 111°
2026-04-25 09:40 49.84040 8.43273 35170 ft 487 kts 123°
2026-04-25 09:41 49.79939 8.51518 35170 ft 487 kts 129°
2026-04-25 09:41 49.75721 8.59707 35164 ft 487 kts 129°
2026-04-25 09:42 49.71495 8.67905 35169 ft 487 kts 129°
2026-04-25 09:42 49.67254 8.76076 35162 ft 487 kts 129°
2026-04-25 09:43 49.63016 8.84221 35150 ft 487 kts 129°
2026-04-25 09:43 49.58774 8.92353 35175 ft 486 kts 129°
2026-04-25 09:44 49.54532 9.00445 35170 ft 485 kts 130°
2026-04-25 09:44 49.50293 9.08515 35175 ft 483 kts 130°
2026-04-25 09:45 49.46145 9.16645 35165 ft 483 kts 124°
2026-04-25 09:45 49.42478 9.25290 35165 ft 483 kts 123°
2026-04-25 09:46 49.38803 9.33905 35158 ft 482 kts 124°
2026-04-25 09:46 49.35115 9.42523 35157 ft 482 kts 124°
2026-04-25 09:47 49.31461 9.51037 35168 ft 479 kts 124°
2026-04-25 09:47 49.27788 9.59551 35166 ft 478 kts 124°
2026-04-25 09:48 49.24129 9.68027 35164 ft 476 kts 124°
2026-04-25 09:48 49.20479 9.76458 35164 ft 476 kts 124°
2026-04-25 09:49 49.16825 9.84879 35163 ft 475 kts 124°
2026-04-25 09:49 49.13164 9.93277 35161 ft 475 kts 125°
2026-04-25 09:50 49.09489 10.01670 35158 ft 475 kts 125°
2026-04-25 09:50 49.05640 10.09835 35151 ft 472 kts 134°
2026-04-25 09:51 49.01024 10.16914 35156 ft 470 kts 137°
2026-04-25 09:51 48.96417 10.23906 35169 ft 470 kts 137°
2026-04-25 09:52 48.91791 10.30934 35166 ft 470 kts 137°
2026-04-25 09:52 48.87146 10.37962 35165 ft 470 kts 137°
2026-04-25 09:53 48.82506 10.44955 35154 ft 470 kts 138°
2026-04-25 09:53 48.77853 10.51926 35163 ft 469 kts 138°
2026-04-25 09:54 48.73210 10.58872 35160 ft 470 kts 139°
2026-04-25 09:54 48.68587 10.65792 35159 ft 470 kts 139°
2026-04-25 09:55 48.63927 10.72726 35153 ft 470 kts 139°
2026-04-25 09:55 48.59274 10.79647 35152 ft 470 kts 137°
2026-04-25 09:56 48.55074 10.87273 35139 ft 472 kts 132°
2026-04-25 09:56 48.50941 10.94974 35138 ft 473 kts 132°
2026-04-25 09:57 48.46777 11.02673 35139 ft 473 kts 133°
2026-04-25 09:57 48.42614 11.10344 35140 ft 473 kts 133°
2026-04-25 09:58 48.38444 11.18016 35139 ft 473 kts 133°
2026-04-25 09:58 48.34281 11.25673 35133 ft 473 kts 133°
2026-04-25 09:59 48.30100 11.33334 35135 ft 473 kts 133°
2026-04-25 09:59 48.25918 11.40961 35135 ft 474 kts 133°
2026-04-25 10:00 48.21721 11.48593 35137 ft 474 kts 133°
2026-04-25 10:00 48.17516 11.56203 35138 ft 474 kts 133°
2026-04-25 10:01 48.13311 11.63807 35137 ft 474 kts 133°
2026-04-25 10:01 48.09101 11.71395 35133 ft 474 kts 133°
2026-04-25 10:02 48.04909 11.78950 35131 ft 475 kts 133°
2026-04-25 10:02 48.00692 11.86531 35125 ft 474 kts 133°
2026-04-25 10:03 47.96466 11.94101 35134 ft 474 kts 133°
2026-04-25 10:03 47.92234 12.01649 35133 ft 474 kts 133°
2026-04-25 10:04 47.87994 12.09192 35132 ft 474 kts 133°
2026-04-25 10:04 47.83746 12.16719 35132 ft 475 kts 133°
2026-04-25 10:05 47.79491 12.24234 35133 ft 475 kts 133°
2026-04-25 10:05 47.75236 12.31736 35123 ft 474 kts 133°
2026-04-25 10:06 47.71011 12.39170 35134 ft 474 kts 133°
2026-04-25 10:06 47.66758 12.46634 35139 ft 473 kts 133°
2026-04-25 10:07 47.62494 12.54091 35137 ft 473 kts 134°
2026-04-25 10:07 47.58112 12.61348 35140 ft 472 kts 136°
2026-04-25 10:08 47.53608 12.68429 35125 ft 472 kts 136°
2026-04-25 10:08 47.49099 12.75516 35105 ft 472 kts 136°
2026-04-25 10:09 47.44678 12.82563 35108 ft 472 kts 136°
2026-04-25 10:09 47.40207 12.89692 35105 ft 472 kts 136°
2026-04-25 10:10 47.35739 12.96796 35111 ft 472 kts 136°
2026-04-25 10:10 47.31266 13.03875 35100 ft 472 kts 136°
2026-04-25 10:11 47.26776 13.10970 35098 ft 473 kts 136°
2026-04-25 10:11 47.22282 13.18043 35098 ft 473 kts 136°
2026-04-25 10:12 47.17775 13.25098 35101 ft 473 kts 136°
2026-04-25 10:13 47.11041 13.35620 35097 ft 473 kts 136°
2026-04-25 10:13 47.06528 13.42667 35086 ft 473 kts 136°
2026-04-25 10:14 47.02023 13.49685 35073 ft 474 kts 136°
2026-04-25 10:14 46.97488 13.56701 35073 ft 473 kts 136°
2026-04-25 10:15 46.92956 13.63696 35076 ft 474 kts 136°
2026-04-25 10:15 46.88423 13.70695 35073 ft 474 kts 136°
2026-04-25 10:16 46.83879 13.77694 35073 ft 474 kts 136°
2026-04-25 10:16 46.79361 13.84620 35075 ft 474 kts 136°
2026-04-25 10:17 46.74809 13.91595 35071 ft 474 kts 136°
2026-04-25 10:17 46.70258 13.98538 35063 ft 473 kts 136°
2026-04-25 10:18 46.65704 14.05470 35068 ft 474 kts 136°
2026-04-25 10:18 46.61140 14.12407 35074 ft 474 kts 136°
2026-04-25 10:19 46.56572 14.19303 35077 ft 474 kts 137°
2026-04-25 10:19 46.51971 14.26173 35079 ft 474 kts 137°
2026-04-25 10:20 46.47374 14.33000 35065 ft 474 kts 136°
2026-04-25 10:20 46.42773 14.39845 35082 ft 473 kts 136°
2026-04-25 10:21 46.38203 14.46626 35084 ft 473 kts 136°
2026-04-25 10:21 46.33599 14.53434 35087 ft 473 kts 137°
2026-04-25 10:22 46.28999 14.60232 35082 ft 473 kts 137°
2026-04-25 10:22 46.24376 14.67021 35075 ft 473 kts 137°
2026-04-25 10:23 46.19762 14.73795 35070 ft 473 kts 136°
2026-04-25 10:23 46.15152 14.80551 35075 ft 472 kts 136°
2026-04-25 10:24 46.10559 14.87256 35075 ft 472 kts 136°
2026-04-25 10:24 46.05939 14.93969 35062 ft 471 kts 136°
2026-04-25 10:25 46.01320 15.00676 35060 ft 471 kts 136°
2026-04-25 10:25 45.96702 15.07379 35064 ft 471 kts 136°
2026-04-25 10:26 45.92083 15.14066 35069 ft 471 kts 136°
2026-04-25 10:26 45.88249 15.19595 35070 ft 470 kts 136°
2026-04-25 10:27 45.83627 15.26229 35072 ft 470 kts 136°
2026-04-25 10:27 45.78258 15.33941 35072 ft 470 kts 136°
2026-04-25 10:28 45.74329 15.39396 35069 ft 469 kts 139°
2026-04-25 10:28 45.69484 15.45640 35058 ft 469 kts 140°
2026-04-25 10:29 45.64625 15.51776 35061 ft 469 kts 140°
2026-04-25 10:29 45.59771 15.58015 35062 ft 469 kts 139°
2026-04-25 10:30 45.54939 15.64283 35060 ft 469 kts 139°
2026-04-25 10:30 45.50092 15.70535 35062 ft 469 kts 139°
2026-04-25 10:31 45.45234 15.76762 35064 ft 470 kts 139°
2026-04-25 10:31 45.40373 15.82986 35068 ft 469 kts 139°
2026-04-25 10:32 45.35513 15.89205 35066 ft 469 kts 139°
2026-04-25 10:32 45.30650 15.95400 35067 ft 469 kts 139°
2026-04-25 10:33 45.25810 16.01549 35072 ft 469 kts 139°
2026-04-25 10:33 45.20938 16.07728 35063 ft 470 kts 139°
2026-04-25 10:34 45.16050 16.13913 35063 ft 469 kts 139°
2026-04-25 10:34 45.11170 16.20069 35068 ft 469 kts 139°
2026-04-25 10:35 45.06317 16.26179 35069 ft 469 kts 139°
2026-04-25 10:35 45.01436 16.32308 35070 ft 470 kts 139°
2026-04-25 10:36 44.96538 16.38443 35065 ft 470 kts 139°
2026-04-25 10:36 44.91650 16.44564 35074 ft 469 kts 139°
2026-04-25 10:37 44.86762 16.50674 35076 ft 469 kts 139°
2026-04-25 10:37 44.81875 16.56759 35080 ft 469 kts 139°
2026-04-25 10:38 44.76976 16.62831 35076 ft 469 kts 139°
2026-04-25 10:38 44.72106 16.68859 35071 ft 469 kts 139°
2026-04-25 10:39 44.67208 16.74911 35081 ft 468 kts 139°
2026-04-25 10:39 44.62312 16.80953 35081 ft 468 kts 139°
2026-04-25 10:40 44.57414 16.86967 35079 ft 468 kts 139°
2026-04-25 10:40 44.52215 16.92439 35077 ft 468 kts 148°
2026-04-25 10:41 44.46689 16.97259 35078 ft 468 kts 148°
2026-04-25 10:41 44.41169 17.02068 35092 ft 467 kts 148°
2026-04-25 10:42 44.35687 17.06847 35096 ft 467 kts 148°
2026-04-25 10:42 44.30162 17.11649 35096 ft 467 kts 148°
2026-04-25 10:43 44.24631 17.16439 35093 ft 468 kts 148°
2026-04-25 10:43 44.19097 17.21217 35100 ft 467 kts 148°
2026-04-25 10:44 44.13570 17.25983 35098 ft 467 kts 148°
2026-04-25 10:44 44.08039 17.30743 35099 ft 467 kts 148°
2026-04-25 10:45 44.02506 17.35493 35099 ft 467 kts 147°
2026-04-25 10:45 43.97012 17.40209 35104 ft 467 kts 147°
2026-04-25 10:46 43.91491 17.44940 35103 ft 467 kts 148°
2026-04-25 10:46 43.85961 17.49657 35099 ft 466 kts 148°
2026-04-25 10:47 43.80427 17.54352 35103 ft 466 kts 147°
2026-04-25 10:47 43.74905 17.59040 35105 ft 465 kts 147°
2026-04-25 10:48 43.69378 17.63725 35102 ft 465 kts 147°
2026-04-25 10:48 43.63871 17.68389 35100 ft 465 kts 147°
2026-04-25 10:49 43.58357 17.73047 35094 ft 464 kts 148°
2026-04-25 10:49 43.52880 17.77654 35099 ft 464 kts 147°
2026-04-25 10:50 43.47356 17.82293 35074 ft 467 kts 147°
2026-04-25 10:50 43.41747 17.87003 35061 ft 475 kts 148°
2026-04-25 10:51 43.36103 17.91726 35058 ft 476 kts 148°
2026-04-25 10:51 43.30437 17.96450 35057 ft 476 kts 148°
2026-04-25 10:52 43.24787 18.01149 35059 ft 476 kts 148°
2026-04-25 10:52 43.19156 18.05825 35063 ft 476 kts 148°
2026-04-25 10:53 43.13489 18.10529 35071 ft 476 kts 147°
2026-04-25 10:53 43.07829 18.15217 35079 ft 475 kts 147°
2026-04-25 10:54 43.02183 18.19877 35076 ft 474 kts 147°
2026-04-25 10:54 42.96531 18.24525 35073 ft 474 kts 148°
2026-04-25 10:55 42.90881 18.29166 35078 ft 473 kts 147°
2026-04-25 10:55 42.85236 18.33802 35081 ft 473 kts 147°
2026-04-25 10:56 42.79602 18.38413 35080 ft 473 kts 147°
2026-04-25 10:56 42.73961 18.43017 35087 ft 473 kts 147°
2026-04-25 10:57 42.68324 18.47614 35085 ft 473 kts 147°
2026-04-25 10:57 42.62677 18.52206 35087 ft 473 kts 147°
2026-04-25 10:58 42.57034 18.56788 35085 ft 472 kts 147°
2026-04-25 10:58 42.51397 18.61351 35086 ft 472 kts 147°
2026-04-25 10:59 42.45757 18.65911 35093 ft 471 kts 147°
2026-04-25 10:59 42.42930 18.68194 35290 ft 471 kts 147°
2026-04-25 10:59 42.40115 18.70463 35615 ft 470 kts 147°
2026-04-25 10:59 42.37342 18.72691 35907 ft 469 kts 147°
2026-04-25 11:00 42.34534 18.74945 36181 ft 469 kts 147°
2026-04-25 11:00 42.31739 18.77189 36430 ft 468 kts 147°
2026-04-25 11:00 42.28890 18.79334 36663 ft 470 kts 153°
2026-04-25 11:00 42.25828 18.80923 36884 ft 473 kts 161°
2026-04-25 11:01 42.22646 18.82090 37045 ft 474 kts 162°
2026-04-25 11:01 42.16278 18.84414 37080 ft 473 kts 162°
2026-04-25 11:02 42.09940 18.86737 37069 ft 472 kts 162°
2026-04-25 11:02 42.03595 18.89064 37076 ft 472 kts 162°
2026-04-25 11:03 41.97259 18.91382 37080 ft 471 kts 162°
2026-04-25 11:03 41.90935 18.93691 37078 ft 471 kts 162°
2026-04-25 11:04 41.84602 18.95996 37088 ft 471 kts 162°
2026-04-25 11:04 41.78274 18.98293 37092 ft 471 kts 162°
2026-04-25 11:05 41.71937 19.00599 37080 ft 471 kts 162°
2026-04-25 11:05 41.65644 19.02879 37084 ft 472 kts 162°
2026-04-25 11:06 41.59306 19.05171 37094 ft 472 kts 162°
2026-04-25 11:06 41.52978 19.07452 37085 ft 472 kts 162°
2026-04-25 11:07 41.46644 19.09728 37096 ft 471 kts 161°
2026-04-25 11:07 41.40478 19.12631 37098 ft 469 kts 156°
2026-04-25 11:08 41.34344 19.15625 37097 ft 469 kts 156°
2026-04-25 11:08 41.28209 19.18611 37095 ft 469 kts 156°
2026-04-25 11:09 41.22118 19.21572 37094 ft 469 kts 156°
2026-04-25 11:09 41.15952 19.24572 37092 ft 469 kts 156°
2026-04-25 11:10 41.09860 19.27530 37084 ft 469 kts 156°
2026-04-25 11:10 41.03723 19.30490 37085 ft 469 kts 156°
2026-04-25 11:11 40.97599 19.33445 37085 ft 469 kts 156°
2026-04-25 11:11 40.91458 19.36409 37087 ft 469 kts 156°
2026-04-25 11:12 40.85325 19.39365 37079 ft 469 kts 156°
2026-04-25 11:12 40.79204 19.42306 37076 ft 468 kts 156°
2026-04-25 11:13 40.73075 19.45241 37078 ft 468 kts 156°
2026-04-25 11:13 40.66945 19.48172 37075 ft 468 kts 156°
2026-04-25 11:14 40.60858 19.51066 37069 ft 468 kts 156°
2026-04-25 11:14 40.54724 19.53984 37059 ft 469 kts 156°
2026-04-25 11:15 40.48591 19.56904 37059 ft 468 kts 156°
2026-04-25 11:15 40.42469 19.59810 37058 ft 468 kts 156°
2026-04-25 11:16 40.33286 19.64147 37048 ft 468 kts 156°
2026-04-25 11:16 40.28191 19.66547 37039 ft 468 kts 156°
2026-04-25 11:17 40.22055 19.69435 37051 ft 468 kts 156°
2026-04-25 11:17 40.15934 19.72320 37049 ft 468 kts 156°
2026-04-25 11:18 40.09808 19.75190 37045 ft 467 kts 156°
2026-04-25 11:18 40.03671 19.78059 37050 ft 467 kts 156°
2026-04-25 11:19 39.97556 19.80912 37050 ft 467 kts 156°
2026-04-25 11:19 39.91433 19.83760 37040 ft 467 kts 156°
2026-04-25 11:20 39.85332 19.86682 37036 ft 467 kts 155°
2026-04-25 11:20 39.79294 19.89757 37044 ft 466 kts 155°
2026-04-25 11:21 39.73263 19.92861 37044 ft 466 kts 155°
2026-04-25 11:21 39.67219 19.95916 37040 ft 465 kts 155°
2026-04-25 11:22 39.61215 19.98901 37040 ft 466 kts 155°
2026-04-25 11:22 39.55107 20.01931 37049 ft 466 kts 155°
2026-04-25 11:23 39.49103 20.04913 37044 ft 466 kts 155°
2026-04-25 11:23 39.42990 20.07740 37039 ft 469 kts 162°
2026-04-25 11:24 39.36671 20.09830 37041 ft 469 kts 162°
2026-04-25 11:24 39.30329 20.11911 37054 ft 469 kts 162°
2026-04-25 11:25 39.24018 20.13989 37052 ft 469 kts 162°
2026-04-25 11:25 39.17696 20.16067 37053 ft 469 kts 162°
2026-04-25 11:26 39.11368 20.18143 37069 ft 469 kts 162°
2026-04-25 11:26 39.05081 20.20200 37054 ft 469 kts 162°
2026-04-25 11:27 38.98929 20.22828 37039 ft 463 kts 149°
2026-04-25 11:27 38.94526 20.26701 37045 ft 455 kts 134°
2026-04-25 11:28 38.89661 20.33727 37031 ft 452 kts 127°
2026-04-25 11:28 38.85579 20.39865 37034 ft 453 kts 127°
2026-04-25 11:29 38.81475 20.46002 37030 ft 453 kts 127°
2026-04-25 11:29 38.77377 20.52141 37033 ft 454 kts 127°
2026-04-25 11:30 38.73265 20.58300 37040 ft 454 kts 127°
2026-04-25 11:30 38.69180 20.64401 37037 ft 455 kts 127°
2026-04-25 11:31 38.65055 20.70547 37031 ft 455 kts 127°
2026-04-25 11:31 38.60926 20.76685 37035 ft 455 kts 127°
2026-04-25 11:32 38.56799 20.82809 37045 ft 455 kts 127°
2026-04-25 11:32 38.52679 20.88914 37056 ft 452 kts 127°
2026-04-25 11:33 38.50627 20.91951 36857 ft 451 kts 127°
2026-04-25 11:33 38.48575 20.94995 35787 ft 455 kts 127°
2026-04-25 11:33 38.46507 20.98056 34946 ft 453 kts 127°
2026-04-25 11:33 38.44464 21.01073 34099 ft 447 kts 126°
2026-04-25 11:34 38.42439 21.04059 33125 ft 441 kts 126°
2026-04-25 11:34 38.40448 21.06992 32221 ft 435 kts 126°
2026-04-25 11:34 38.38477 21.09888 31282 ft 430 kts 126°
2026-04-25 11:34 38.36520 21.12761 30324 ft 426 kts 127°
2026-04-25 11:35 38.34589 21.15596 29244 ft 424 kts 126°
2026-04-25 11:35 38.32668 21.18416 28193 ft 419 kts 126°
2026-04-25 11:35 38.30764 21.21212 27137 ft 416 kts 127°
2026-04-25 11:35 38.29562 21.22976 26430 ft 415 kts 127°
2026-04-25 11:36 38.27672 21.25742 25584 ft 409 kts 127°
2026-04-25 11:36 38.25833 21.28420 24965 ft 397 kts 127°
2026-04-25 11:36 38.24057 21.31006 24305 ft 388 kts 127°
2026-04-25 11:36 38.22299 21.33573 23657 ft 381 kts 127°
2026-04-25 11:37 38.20569 21.36099 22948 ft 375 kts 127°
2026-04-25 11:37 38.18871 21.38576 22365 ft 370 kts 127°
2026-04-25 11:37 38.17132 21.40960 21769 ft 365 kts 133°
2026-04-25 11:37 38.15207 21.43002 21205 ft 359 kts 140°
2026-04-25 11:38 38.13105 21.44685 20654 ft 354 kts 148°
2026-04-25 11:38 38.10910 21.46075 20105 ft 348 kts 150°
2026-04-25 11:38 38.08761 21.47420 19593 ft 341 kts 149°
2026-04-25 11:38 38.06658 21.48739 19093 ft 335 kts 149°
2026-04-25 11:39 38.04587 21.50041 18623 ft 328 kts 149°
2026-04-25 11:39 38.02560 21.51316 18140 ft 322 kts 149°
2026-04-25 11:39 38.00573 21.52567 17678 ft 315 kts 149°
2026-04-25 11:39 37.98634 21.53786 17260 ft 308 kts 150°
2026-04-25 11:40 37.96733 21.54980 16874 ft 301 kts 150°
2026-04-25 11:40 37.94867 21.56153 16489 ft 297 kts 150°
2026-04-25 11:40 37.93041 21.57302 16103 ft 291 kts 149°
2026-04-25 11:40 37.91243 21.58432 15723 ft 286 kts 149°
2026-04-25 11:41 37.89469 21.59542 15357 ft 283 kts 149°
2026-04-25 11:41 37.87704 21.60646 14981 ft 283 kts 149°
2026-04-25 11:41 37.85957 21.61740 14604 ft 284 kts 149°
2026-04-25 11:41 37.84185 21.62853 14222 ft 285 kts 149°
2026-04-25 11:42 37.82403 21.63969 13815 ft 287 kts 149°
2026-04-25 11:42 37.80605 21.65092 13368 ft 288 kts 149°
2026-04-25 11:42 37.78821 21.66204 13006 ft 286 kts 150°
2026-04-25 11:42 37.77040 21.67316 12653 ft 284 kts 150°
2026-04-25 11:43 37.75275 21.68417 12243 ft 281 kts 150°
2026-04-25 11:43 37.73531 21.69502 11723 ft 278 kts 150°
2026-04-25 11:43 37.71803 21.70579 11215 ft 276 kts 150°
2026-04-25 11:43 37.70125 21.71622 11066 ft 259 kts 151°
2026-04-25 11:44 37.68561 21.72589 10992 ft 242 kts 151°
2026-04-25 11:44 37.67100 21.73493 10928 ft 226 kts 150°
2026-04-25 11:44 37.65726 21.74344 10797 ft 213 kts 150°
2026-04-25 11:44 37.64436 21.75144 10692 ft 200 kts 150°
2026-04-25 11:45 37.63220 21.75896 10617 ft 188 kts 150°
2026-04-25 11:45 37.62076 21.76606 10538 ft 179 kts 150°
2026-04-25 11:45 37.60927 21.77325 10494 ft 199 kts 149°
2026-04-25 11:45 37.59629 21.78143 10378 ft 212 kts 150°
2026-04-25 11:46 37.58314 21.78962 10279 ft 214 kts 150°
2026-04-25 11:46 37.56978 21.79788 10182 ft 212 kts 150°
2026-04-25 11:46 37.55655 21.80606 10081 ft 211 kts 150°
2026-04-25 11:46 37.54338 21.81419 9988 ft 210 kts 150°
2026-04-25 11:47 37.53018 21.82235 9688 ft 211 kts 150°
2026-04-25 11:47 37.51708 21.83046 9381 ft 209 kts 150°
2026-04-25 11:47 37.50407 21.83853 9092 ft 208 kts 150°
2026-04-25 11:47 37.49109 21.84657 8814 ft 207 kts 150°
2026-04-25 11:48 37.47818 21.85456 8540 ft 207 kts 150°
2026-04-25 11:48 37.46533 21.86250 8253 ft 205 kts 149°
2026-04-25 11:48 37.45250 21.87040 7992 ft 205 kts 150°
2026-04-25 11:48 37.43973 21.87827 7715 ft 204 kts 150°
2026-04-25 11:49 37.42702 21.88612 7443 ft 203 kts 149°
2026-04-25 11:49 37.41434 21.89396 7168 ft 203 kts 149°
2026-04-25 11:49 37.40173 21.90175 6898 ft 202 kts 149°
2026-04-25 11:49 37.38925 21.90941 6631 ft 202 kts 150°
2026-04-25 11:50 37.37662 21.91719 6354 ft 202 kts 149°
2026-04-25 11:50 37.36392 21.92506 6069 ft 204 kts 149°
2026-04-25 11:50 37.35118 21.93294 5783 ft 204 kts 149°
2026-04-25 11:50 37.33853 21.94074 5508 ft 200 kts 150°
2026-04-25 11:51 37.32615 21.94834 5243 ft 197 kts 150°
2026-04-25 11:51 37.31388 21.95588 4988 ft 196 kts 151°
2026-04-25 11:51 37.30168 21.96338 4720 ft 195 kts 151°
2026-04-25 11:51 37.28947 21.97089 4450 ft 196 kts 150°
2026-04-25 11:52 37.27680 21.97734 4176 ft 198 kts 164°
2026-04-25 11:52 37.26332 21.98041 3918 ft 195 kts 168°
2026-04-25 11:52 37.25039 21.98321 3662 ft 183 kts 169°
2026-04-25 11:52 37.23811 21.98591 3428 ft 177 kts 167°
2026-04-25 11:53 37.22617 21.98856 3189 ft 173 kts 167°
2026-04-25 11:53 37.21748 21.99049 3011 ft 168 kts 167°
2026-04-25 11:53 37.20616 21.99299 2781 ft 163 kts 167°
2026-04-25 11:53 37.19518 21.99544 2561 ft 157 kts 167°
2026-04-25 11:54 37.18454 21.99781 2386 ft 153 kts 168°
2026-04-25 11:54 37.17415 22.00011 2202 ft 155 kts 168°
2026-04-25 11:54 37.15288 22.00481 1678 ft 153 kts 169°
2026-04-25 11:55 37.14255 22.00708 1426 ft 148 kts 168°
2026-04-25 11:55 37.13258 22.00927 1189 ft 143 kts 171°
2026-04-25 11:55 37.12300 22.01169 965 ft 137 kts 168°
2026-04-25 11:55 37.11351 22.01448 767 ft 141 kts 167°
2026-04-25 11:56 37.10395 22.01669 585 ft 138 kts 167°
2026-04-25 11:56 37.09466 22.01911 373 ft 135 kts 167°
2026-04-25 11:56 37.08551 22.02131 184 ft 133 kts 168°
2026-04-25 11:56 37.07651 22.02350 39 ft 129 kts 167°
2026-04-25 11:57 37.06977 22.02511 34 ft 57 kts 169°
2026-04-25 11:57 37.06775 22.02558 31 ft 22 kts 170°
2026-04-25 11:57 37.06629 22.02589 32 ft 20 kts 171°
2026-04-25 11:57 37.06493 22.02618 32 ft 16 kts 173°
2026-04-25 11:58 37.06447 22.02526 32 ft 13 kts 259°
2026-04-25 11:58 37.06436 22.02437 34 ft 9 kts 261°
2026-04-25 11:58 37.06405 22.02373 35 ft 9 kts 212°
2026-04-25 11:58 37.06352 22.02375 34 ft 8 kts 126°
2026-04-25 11:59 37.06363 22.02437 34 ft 8 kts 79°
2026-04-25 11:59 37.06345 22.02486 34 ft 7 kts 147°
2026-04-25 11:59 37.06300 22.02487 34 ft 4 kts 224°
2026-04-25 12:00 37.06287 22.02450 34 ft 1 kts 259°
2026-04-25 12:00 37.06287 22.02449 34 ft 0 kts 259°